Flag for Germany Weather past 2 weeks in Itzehoe, Schleswig-Holstein, Germany

Now
52 °F

Cool.


Feels Like: 49 °F
Forecast: 52 / 60 °F
Wind: 8 mph from Southeast

Location: Hohn

Current Time: May 3, 2015 at 10:58:49 PM

Latest Report: May 3, 2015 at 10:20 PM


Visibility: 1 mi

Pressure: 29.56 "Hg

Humidity: 94%

Dew point: 50 °F

Location of ItzehoeLocation

Historic Weather in Itzehoe — Graph

°F

Itzehoe temperature yesterday

Maximum temperature yesterday: 54 °F (at 2:20 PM)
Minimum temperature yesterday: 30 °F (at 5:20 AM)
Average temperature yesterday: 43 °F

Past Weeks' High & Low Weather Summary

 TemperatureHumidityPressure
High64 °F (Apr 20, 3:20 PM)100% (Apr 20, 3:20 AM)30.36 "Hg (Apr 20, 3:20 AM)
Low27 °F (Apr 28, 5:20 AM)27% (Apr 20, 7:20 PM)29.56 "Hg (May 3, 9:20 PM)
Average47 °F74%29.96 "Hg
* Reported Apr 18 9:20 PM — May 3 9:20 PM, Itzehoe, Weather by CustomWeather, © 2015

Note: Actual official high and low records may vary slightly from our data, if they occured in-between our weather recording intervals... More about our weather records

Advertising

Itzehoe weather history for previous 24 hours

 ConditionsComfort  
Time TempWeatherWind HumidityBarometerVisibility
9:20 PM
Sun, May 3
52 °FCool.10 mph94%29.56 "Hg2 mi
8:20 PM52 °FCool.8 mph88%29.59 "Hg2 mi
7:20 PM54 °FCool.12 mph82%29.59 "Hg3 mi
6:20 PM59 °FRefreshingly cool.14 mph51%29.62 "Hg5 mi
5:20 PM61 °FRefreshingly cool.12 mph45%29.65 "Hg5 mi
4:20 PM63 °FMild.15 mph39%29.65 "Hg6 mi
3:20 PM63 °FMild.15 mph42%29.71 "Hg6 mi
2:20 PM63 °FMild.16 mph42%29.74 "Hg6 mi
1:20 PM61 °FRefreshingly cool.16 mph42%29.74 "Hg6 mi
12:20 PM59 °FRefreshingly cool.15 mph45%29.77 "Hg4 mi
11:20 AM55 °FRefreshingly cool.14 mph47%29.80 "Hg5 mi
10:20 AM54 °FCool.13 mph54%29.83 "Hg4 mi
9:20 AM50 °FCool.10 mph62%29.86 "Hg4 mi
8:20 AM46 °FCool.9 mph71%29.86 "Hg4 mi
7:20 AM39 °FChilly.7 mph87%29.86 "Hg4 mi
6:20 AM32 °FChilly.5 mph100%29.86 "Hg4 mi
5:20 AM30 °FChilly.3 mph100%29.89 "Hg4 mi
4:20 AM32 °FChilly.5 mph93%29.89 "Hg4 mi
3:20 AM32 °FChilly.3 mph93%29.89 "Hg5 mi
2:20 AM32 °FChilly.1 mph93%29.89 "Hg4 mi
1:20 AM30 °FChilly.1 mph93%29.92 "Hg4 mi
12:20 AM32 °FChilly.No wind93%29.92 "Hg4 mi
11:20 PM
Sat, May 2
34 °FChilly.1 mph93%29.92 "Hg5 mi
10:20 PM37 °FChilly.2 mph81%29.92 "Hg5 mi
Weather by CustomWeather, © 2015

See weather overviewHow to use our weather pages